Tucson, AZ

8:53 AM MST on August 19, 2017 (GMT -0700)
Tucson International

Weather History for KTUS - October, 2012

Change the Weather History Date:

Thursday, October 18, 2012

  Actual Average Record
Temperature  
Mean Temperature 75 °F 70 °F  
Max Temperature 86 °F 84 °F 98 °F (1933)
Min Temperature 63 °F 56 °F 35 °F (1904)
Degree Days  
Heating Degree Days 0 1  
Month to date heating degree days 1 4  
Since 1 July heating degree days 1 4  
Cooling Degree Days 10 6  
Month to date cooling degree days 189 156  
Year to date cooling degree days 3451 3063  
Growing Degree Days 24 (Base 50)    
Moisture  
Dew Point 53 °F    
Average Humidity 48    
Maximum Humidity 68    
Minimum Humidity 27    
Precipitation  
Precipitation 0.00 in 0.02 in 1.01 in (1972)
Month to date precipitation T 0.59  
Year to date precipitation 6.70 9.79  
Snow  
Snow 0.00 in - - ()
Month to date snowfall 0.0  
Snow Depth 0.00 in    
Sea Level Pressure  
Sea Level Pressure 29.94 in    
Wind  
Wind Speed 5 mph (WNW)    
Max Wind Speed 16 mph    
Max Gust Speed 23 mph    
Visibility 10 miles    
Events      
T = Trace of Precipitation, MM = Missing Value Source: NWS Daily Summary

Daily Weather History Graph

Daily Weather History Graph

Search for Another Location

Airport or City:

Trip Planner

Search our weather history database for the weather conditions in past years. The results will help you decide how hot, cold, wet, or windy it might be!

Date:

Astronomy

Oct. 18, 2012 Rise Set
Actual Time 6:29 AM MST 5:47 PM MST
Civil Twilight 6:05 AM MST 6:11 PM MST
Nautical Twilight 5:36 AM MST 6:40 PM MST
Astronomical Twilight 5:08 AM MST 7:08 PM MST
Moon 10:03 AM MST (10/18) 8:37 PM MST (10/18)
Length of Visible Light 12h 06m
Length of Day
11h 17m
Waxing Crescent, 15% of the Moon is Illuminated
Oct 18
Waxing Crescent
Oct 21
First Quarter
Oct 29
Full
Nov 6
Last Quarter
Nov 13
New

Hourly Weather History & Observations

Time (MST) Temp. Heat Index Dew Point Humidity Pressure Visibility Wind Dir Wind Speed Gust Speed Precip Events Conditions
12:53 AM 71.1 °F - 41.0 °F 34% 29.91 in 10.0 mi SSW 4.6 mph - N/A   Mostly Cloudy
1:53 AM 71.1 °F - 48.9 °F 45% 29.92 in 10.0 mi Calm Calm - N/A   Clear
2:53 AM 69.1 °F - 57.0 °F 65% 29.92 in 10.0 mi Calm Calm - N/A   Clear
3:53 AM 66.9 °F - 50.0 °F 54% 29.93 in 10.0 mi Calm Calm - N/A   Clear
4:53 AM 66.9 °F - 48.9 °F 52% 29.94 in 10.0 mi Calm Calm - N/A   Clear
5:53 AM 64.0 °F - 50.0 °F 60% 29.96 in 10.0 mi Calm Calm - N/A   Clear
6:53 AM 63.0 °F - 46.0 °F 54% 29.99 in 10.0 mi Calm Calm - N/A   Clear
7:53 AM 68.0 °F - 57.0 °F 68% 30.01 in 10.0 mi Calm Calm - N/A   Clear
8:53 AM 73.0 °F - 57.9 °F 59% 30.02 in 10.0 mi Calm Calm - N/A   Clear
9:53 AM 77.0 °F - 59.0 °F 54% 30.01 in 10.0 mi Calm Calm - N/A   Clear
10:53 AM 79.0 °F - 57.9 °F 48% 30.00 in 10.0 mi West 4.6 mph - N/A   Clear
11:53 AM 81.0 °F 81.1 °F 57.9 °F 45% 29.97 in 10.0 mi Variable 3.5 mph - N/A   Partly Cloudy
12:53 PM 82.9 °F 82.1 °F 55.9 °F 39% 29.94 in 10.0 mi NW 8.1 mph - N/A   Clear
1:53 PM 84.0 °F 83.0 °F 55.9 °F 38% 29.91 in 10.0 mi NNW 11.5 mph 18.4 mph N/A   Clear
2:53 PM 84.9 °F 83.2 °F 53.1 °F 33% 29.90 in 10.0 mi NNW 15.0 mph 23.0 mph N/A   Clear
3:53 PM 84.9 °F - 46.9 °F 27% 29.89 in 10.0 mi NW 12.7 mph - N/A   Clear
4:53 PM 82.9 °F - 51.1 °F 33% 29.88 in 10.0 mi NW 12.7 mph - N/A   Clear
5:53 PM 80.1 °F - 52.0 °F 38% 29.90 in 10.0 mi NW 8.1 mph - N/A   Clear
6:53 PM 78.1 °F - 53.1 °F 42% 29.91 in 10.0 mi WNW 9.2 mph - N/A   Clear
7:53 PM 77.0 °F - 53.1 °F 43% 29.91 in 10.0 mi WNW 6.9 mph - N/A   Clear
8:53 PM 75.9 °F - 52.0 °F 43% 29.91 in 10.0 mi NW 5.8 mph - N/A   Clear
9:53 PM 73.9 °F - 51.1 °F 45% 29.91 in 10.0 mi WNW 6.9 mph - N/A   Clear
10:53 PM 71.1 °F - 52.0 °F 51% 29.92 in 10.0 mi West 5.8 mph - N/A   Clear
11:53 PM 69.1 °F - 52.0 °F 54% 29.93 in 10.0 mi West 5.8 mph - N/A   Clear